STARLINK-34209, 64150

Orbit data source: Space-Track

STARLINK-34209, 64150 is a payload satellite owned by SpaceX/Seattle (US) in SSO that was launched on Tue, 27 May 2025 UTC via an FALCON 9 launch vehicle from the Air Force Western Test Range (AFWTR). Payload-class satellites include a variety of spacecraft equipped with specific instruments for various scientific and technological missions. These include communications satellites like Starlink; space stations such as the ISS; scientific satellites like the Hubble; Earth observation satellites from companies like Planet Labs, Umbra, and HawkEye 360; GPS; miniature CubeSats for education and research; and military/defense satellites.

Loading next visibility...
Identifier
64150, 2025-112E
Orbit
SSO
Country
Flag of USUS
Related business
Manufacturer
SpaceX/Seattle
Mission
Operational Commercial Communications
Bus & Motor
STARLINK V2MO, Unknown motor
Mass
575 kg wet, ~530 kg dry
Launch date (UTC)
2025-05-27 (1 year ago)
Launch vehicle
FALCON 9
Launch site
Air Force Western Test Range (AFWTR)
Object type
Payload
Rocket body
Debris
Shape & HBR
Box + 2 Pan, 17.7 m
Radar Cross Section
36.964 m², Large (>1 m²)

Expand to show TLE details & history
Last TLE update: 16 hours ago

TLE from 16 hours ago
0 STARLINK-34209
1 64150U 25112E   26202.54923598  .00005133  00000-0  35918-3 0  9995
2 64150  97.2840 251.1761 0002537 100.3344 259.8170 15.05669137 63456
Epoch: 2026-07-21T13:10Z
TLE epoch observation values (Epoch: 2026-07-21T13:10:53.988Z)
Latitude
-0.00001°
Longitude
114.13382°
Altitude
552.838 km
Speed
7.585 km/s
True Right ascension
16h 44m 42s
True Declination
0° 00' 00"
Sunlit
Object was in full shadow at epoch
Visualization orbit readout
Latitude
Unknown
Longitude
Unknown
Altitude
Unknown
Speed
Unknown
Apparent Right ascension
Unknown
Apparent Declination
Unknown
Sunlit
N/A
Visualization observer readout
Local Sidereal Time
18:40:01
Azimuth
Unknown
Elevation
Unknown
Doppler factor
Unknown
Orbital elements
Apogee altitude
548.189 km
Perigee altitude
544.676 km
Semi-major axis
6,924.569 km
Eccentricity
0.00025
Inclination
97.284°
RAAN
251.1761°
Arg. of periapsis
100.3344°
True anomaly
259.78839°
Mean anomaly
259.817°
Eccentric anomaly
259.80269°
Mean motion
3.76664 °/min
Orbital period
95.58 mins
BSTAR
0.00035918
Loading maneuver chart data...
Computing Atmospheric mass density...
Loading historical data...
Loading historical data...
Loading historical data...
Loading historical data...
Loading historical data...
Loading historical data...
Loading historical data...

Documentation

Showing up to 5 results
|